Total_Precipitation_Accumulation
1.05 1.07 0.95 0.91 0.90 0.87 0.86 0.89 0.97 1.03 1.13 1.17 1.21 1.24 1.26 1.35 1.40 1.50 1.64 1.79 1.82 1.83 1.72 1.76 1.88 1.94 2.12 2.17 2.15 2.11 2.08 1.99 1.84 1.74 1.49 1.27 1.26 1.33 1.41 1.33 1.36 1.36 1.20
1.13 1.05 0.97 1.01 1.01 1.02 0.98 0.92 0.95 0.99 0.99 1.07 1.18 1.15 1.15 1.19 1.27 1.38 1.47 1.54 1.64 1.61 1.51 1.53 1.64 1.71 1.85 1.97 2.08 1.99 2.00 1.96 1.94 1.87 1.64 1.43 1.37 1.37 1.45 1.41 1.30 1.28 1.26
1.14 1.14 1.03 0.94 0.95 0.98 0.97 0.89 0.85 0.88 0.91 1.02 1.15 1.27 1.18 1.08 1.17 1.26 1.30 1.33 1.35 1.30 1.29 1.34 1.40 1.47 1.60 1.72 1.82 1.91 1.93 1.86 1.95 1.92 1.71 1.52 1.39 1.34 1.38 1.35 1.31 1.36 1.26
1.21 1.16 1.10 1.03 1.04 0.96 0.87 0.83 0.82 0.78 0.73 0.79 0.93 1.05 1.10 1.06 1.02 1.03 1.06 1.22 1.22 1.14 1.05 1.04 1.07 1.11 1.24 1.38 1.49 1.64 1.80 1.92 2.00 2.01 1.85 1.60 1.42 1.36 1.41 1.46 1.46 1.40 1.40
1.28 1.26 1.17 1.09 1.00 0.91 0.82 0.73 0.73 0.64 0.62 0.69 0.84 1.00 1.05 1.04 1.06 1.06 1.00 1.04 1.10 1.12 1.06 0.94 0.87 0.87 0.97 1.06 1.16 1.42 1.63 1.79 1.94 2.00 1.91 1.73 1.55 1.46 1.40 1.40 1.49 1.59 1.60
1.08 1.11 1.17 1.13 0.96 0.85 0.75 0.66 0.64 0.62 0.61 0.61 0.69 0.84 0.98 0.94 1.10 1.14 1.06 0.98 0.99 1.00 1.00 0.99 0.97 0.92 0.80 0.77 0.84 1.01 1.25 1.47 1.66 1.78 1.82 1.67 1.50 1.45 1.49 1.49 1.49 1.56 1.62
0.91 0.94 0.99 0.99 0.84 0.77 0.66 0.59 0.57 0.57 0.58 0.57 0.64 0.76 0.89 1.03 1.06 0.93 0.99 1.00 0.97 0.98 0.95 0.95 0.98 0.96 1.01 0.90 0.85 0.83 0.87 1.05 1.30 1.52 1.55 1.51 1.56 1.48 1.44 1.39 1.37 1.37 1.39
0.75 0.77 0.77 0.79 0.74 0.67 0.57 0.54 0.54 0.56 0.59 0.59 0.60 0.65 0.73 0.92 0.97 0.85 1.02 1.04 1.05 1.04 1.02 1.02 1.07 1.09 1.04 1.16 1.13 1.03 0.96 0.95 1.05 1.00 1.11 1.40 1.51 1.52 1.51 1.52 1.55 1.46 1.39
0.54 0.62 0.66 0.68 0.65 0.60 0.54 0.60 0.64 0.61 0.60 0.58 0.55 0.56 0.59 0.68 0.78 0.74 0.87 1.00 1.11 1.11 0.99 0.98 1.04 1.06 1.25 1.30 1.20 1.17 1.09 1.04 1.18 1.20 1.22 1.29 1.37 1.36 1.36 1.44 1.51 1.46 1.40
0.37 0.45 0.52 0.59 0.61 0.63 0.73 0.80 0.80 0.76 0.67 0.59 0.54 0.53 0.54 0.56 0.69 0.58 0.68 0.85 1.02 1.15 1.08 1.01 1.16 1.12 1.12 1.08 1.04 1.22 1.19 1.08 0.99 0.96 0.98 1.04 1.06 1.12 1.19 1.21 1.36 1.39 1.33
0.23 0.29 0.40 0.56 0.64 0.71 0.83 0.86 0.83 0.76 0.65 0.58 0.55 0.51 0.49 0.57 0.71 0.66 0.72 0.80 0.94 1.04 1.07 1.07 1.03 1.11 0.94 0.90 0.95 1.08 1.23 1.18 1.12 1.14 1.07 1.01 0.99 0.99 0.95 1.01 1.15 1.25 1.28
0.25 0.26 0.34 0.45 0.58 0.72 0.81 0.79 0.78 0.79 0.71 0.62 0.61 0.58 0.58 0.66 0.72 0.72 0.74 0.79 0.87 0.94 0.94 0.84 0.83 0.92 0.78 0.74 0.73 0.85 1.03 1.06 1.05 1.11 1.08 1.01 0.95 0.92 0.89 0.90 0.98 1.07 1.10
0.25 0.21 0.23 0.32 0.46 0.64 0.72 0.73 0.74 0.76 0.73 0.69 0.64 0.60 0.61 0.66 0.75 0.85 0.74 0.66 0.64 0.72 0.76 0.76 0.69 0.66 0.65 0.60 0.63 0.73 0.79 0.92 1.04 1.07 0.97 0.89 0.90 0.93 0.93 0.92 0.89 0.93 0.97
0.22 0.22 0.21 0.21 0.27 0.36 0.44 0.50 0.58 0.63 0.63 0.63 0.63 0.63 0.64 0.64 0.61 0.67 0.67 0.63 0.57 0.56 0.55 0.49 0.47 0.50 0.55 0.57 0.57 0.58 0.64 0.86 1.04 1.02 0.93 0.87 0.88 0.92 1.00 1.03 1.00 0.95 0.95
0.22 0.24 0.24 0.25 0.28 0.29 0.32 0.35 0.39 0.43 0.51 0.58 0.57 0.60 0.58 0.59 0.59 0.63 0.63 0.62 0.66 0.69 0.70 0.59 0.53 0.51 0.52 0.55 0.57 0.61 0.73 0.84 0.96 0.91 0.91 0.88 0.88 0.95 1.00 1.04 1.12 1.09 1.01
0.20 0.21 0.20 0.21 0.24 0.25 0.27 0.29 0.32 0.32 0.39 0.43 0.43 0.43 0.41 0.47 0.55 0.54 0.55 0.56 0.60 0.68 0.73 0.71 0.70 0.69 0.67 0.66 0.66 0.63 0.64 0.72 0.80 0.87 0.88 0.88 0.88 0.89 0.91 0.95 1.02 1.07 1.05
0.19 0.19 0.19 0.18 0.21 0.24 0.24 0.26 0.29 0.28 0.26 0.26 0.30 0.33 0.33 0.36 0.37 0.41 0.46 0.52 0.55 0.62 0.65 0.66 0.66 0.64 0.63 0.62 0.61 0.60 0.59 0.60 0.68 0.77 0.88 0.94 0.96 0.96 0.95 0.92 0.91 0.93 0.91
0.21 0.23 0.22 0.23 0.24 0.23 0.24 0.28 0.31 0.32 0.28 0.22 0.23 0.27 0.29 0.33 0.33 0.33 0.35 0.39 0.39 0.42 0.49 0.56 0.57 0.56 0.55 0.55 0.53 0.51 0.51 0.54 0.59 0.64 0.73 0.85 1.00 1.08 1.09 1.06 1.02 1.00 0.99
0.20 0.21 0.23 0.26 0.26 0.26 0.29 0.33 0.32 0.31 0.28 0.25 0.23 0.23 0.28 0.31 0.35 0.36 0.33 0.29 0.28 0.29 0.33 0.39 0.42 0.43 0.44 0.45 0.46 0.47 0.49 0.51 0.54 0.58 0.62 0.67 0.78 0.93 1.03 1.09 1.15 1.25 1.22
0.21 0.24 0.25 0.25 0.27 0.29 0.30 0.30 0.28 0.28 0.26 0.24 0.23 0.24 0.29 0.32 0.30 0.28 0.27 0.29 0.31 0.33 0.33 0.35 0.37 0.37 0.40 0.43 0.45 0.46 0.47 0.48 0.51 0.55 0.57 0.62 0.70 0.79 0.89 0.98 1.04 1.13 1.18
0.22 0.24 0.26 0.24 0.23 0.24 0.25 0.25 0.26 0.24 0.23 0.22 0.21 0.22 0.27 0.29 0.30 0.29 0.28 0.28 0.29 0.31 0.32 0.33 0.34 0.37 0.38 0.43 0.52 0.55 0.53 0.50 0.52 0.58 0.64 0.67 0.71 0.76 0.80 0.88 0.95 1.02 1.08
0.23 0.22 0.20 0.20 0.22 0.23 0.24 0.25 0.27 0.29 0.29 0.27 0.26 0.24 0.27 0.28 0.29 0.28 0.27 0.26 0.27 0.28 0.30 0.32 0.31 0.32 0.34 0.39 0.49 0.60 0.66 0.64 0.60 0.63 0.70 0.75 0.77 0.79 0.83 0.88 0.94 1.01 1.04
0.22 0.21 0.20 0.20 0.20 0.22 0.26 0.27 0.28 0.29 0.31 0.31 0.32 0.30 0.29 0.27 0.26 0.25 0.26 0.28 0.28 0.28 0.30 0.31 0.31 0.32 0.34 0.39 0.46 0.53 0.59 0.66 0.71 0.75 0.79 0.83 0.84 0.85 0.88 0.92 0.94 1.02 1.05
0.20 0.18 0.20 0.22 0.22 0.24 0.26 0.28 0.28 0.28 0.30 0.31 0.30 0.30 0.29 0.29 0.27 0.24 0.24 0.28 0.30 0.30 0.32 0.34 0.35 0.34 0.37 0.40 0.43 0.47 0.51 0.57 0.60 0.63 0.71 0.80 0.83 0.85 0.90 0.93 0.94 0.97 1.04
0.20 0.18 0.19 0.22 0.22 0.24 0.27 0.30 0.33 0.32 0.30 0.29 0.29 0.28 0.28 0.28 0.29 0.26 0.25 0.27 0.30 0.33 0.33 0.33 0.34 0.37 0.40 0.41 0.42 0.48 0.62 0.67 0.64 0.64 0.68 0.75 0.79 0.82 0.90 0.97 1.05 1.09 1.09
0.22 0.22 0.20 0.22 0.23 0.25 0.27 0.31 0.36 0.38 0.36 0.32 0.31 0.32 0.33 0.31 0.32 0.32 0.31 0.32 0.33 0.35 0.38 0.39 0.39 0.40 0.42 0.46 0.47 0.53 0.61 0.61 0.63 0.69 0.70 0.72 0.77 0.81 0.89 1.00 1.06 1.13 1.17